Current Version              Previous Version:    01  02  03  04  05  06  07  08  09  10  11  12  13  14  15  16  17  18  19  20  21  22  23  24  25  26  27  28  29  30  
   31  32  33  34  35  36  37  38  39  40  41  42  43  44  45  46  47  48  49  50  51  52  53  54  55  56  57  58  59  60  

[Printable]
064
ASUS44 KFWD 220903
RWRTX
NORTH TEXAS HOURLY WEATHER ROUNDUP
NATIONAL WEATHER SERVICE FORT WORTH TX
400 AM CDT FRI AUG 22 2014

NOTE: "FAIR" INDICATES FEW OR NO CLOUDS BELOW 12,000 FEET WITH NO
SIGNIFICANT WEATHER AND/OR OBSTRUCTIONS TO VISIBILITY.

TXZ118-119-221000-
DALLAS/FORT WORTH METROPLEX

CITY           SKY/WX    TMP DP  RH WIND       PRES   REMARKS
DFW AIRPORT    CLEAR     83  72  69 S12       29.99R
DALLAS LOVE    CLEAR     82  72  71 S12       30.00R
FTW MEACHAM    CLEAR     83  72  69 S12       29.99R
DAL-EXECUTIVE  CLEAR     82  72  71 S8        30.00R
FTW-ALLIANCE   CLEAR     82  71  69 S9G18     29.99R
FTW-NAS-JRB    CLEAR     85  70  60 S15G23    30.03R
FTW-SPINKS     CLEAR     81  72  74 S13G21    30.02R
ARLINGTON      CLEAR     82  72  71 S9        30.00R
GRAND PRAIRIE  CLEAR     82  71  68 S12       30.01R
ADDISON        CLEAR     83  70  64 S9        30.02R
MESQUITE       CLEAR     80  71  73 S12       30.01S
LANCASTER      CLEAR     80  70  72 S9        30.02R
$$

TXZ091>094-102>105-117-120-121-131>134-221000-
NORTH CENTRAL TEXAS

CITY           SKY/WX    TMP DP  RH WIND       PRES   REMARKS
SHRMAN/DENISON CLEAR     80  68  65 S10       30.01R
GAINESVILLE    CLEAR     79  68  69 SE6       30.01R
BOWIE          CLEAR     80  66  61 S8        29.99R
BRIDGEPORT     CLEAR     83  65  54 S9        30.00R
DECATUR        CLEAR     81  66  60 S12       30.00R
DENTON         CLEAR     82  70  66 S14       29.99R
MCKINNEY       CLEAR     81  70  69 S10       30.00R
GREENVILLE     CLEAR     79  70  73 S8        30.02R
ROCKWALL       CLEAR     80  72  75 S13       30.00S
TERRELL        CLEAR     81  73  76 S10       30.02R
WAXAHACHIE     CLEAR     79  70  72 S9        30.03R
CLEBURNE       CLEAR     81  75  83 S10G16    30.03R
GRANBURY       CLEAR     83  71  66 S10G16    30.01R
$$

TXZ083>090-098>101-113>116-127>130-139>142-154-155-221000-
WESTERN NORTH TEXAS

CITY           SKY/WX    TMP DP  RH WIND       PRES   REMARKS
WICHITA FALLS  CLEAR     79  61  53 S10       29.95R
WF-KICKAPOO    CLEAR     79  59  50 SE7       29.97R
VERNON         CLEAR     80  60  49 S5        29.95S
ABILENE        CLEAR     81  67  62 S13       30.01S
ABILENE-DYESS  CLEAR     80  66  62 S14       30.00R
BRECKENRIDGE   CLEAR     82  65  55 S7        29.98S
GRAHAM         CLEAR     83  67  57 S8        29.96S
MINERAL WELLS  CLEAR     82  70  66 S9        29.98R
STEPHENVILLE   CLEAR     80  70  70 S10       30.04S
COMANCHE       CLEAR     79  71  74 S12G17    30.03R
BROWNWOOD      MOCLDY    81  72  74 S12       30.03R
COLEMAN        CLEAR     79  69  72 S12       30.03R
BRADY          CLEAR     79  72  78 S10       30.05R
$$

TXZ143>147-156>162-174-175-221000-
CENTRAL TEXAS

CITY           SKY/WX    TMP DP  RH WIND       PRES   REMARKS
WACO           PTCLDY    80  74  81 S17G23    30.02S
WACO-MCGREGOR  PTCLDY    81  70  69 S12       30.03S
HILLSBORO      CLEAR     80  72  75 S13       30.02S
CORSICANA      MOCLDY    80  72  76 S9        30.04R
MEXIA          CLOUDY    78  74  86 S12       30.03R
HEARNE           N/A     80  74  83 SE8       30.04S
CAMERON        CLOUDY    81  74  80 S13G18    30.04R
TEMPLE         CLEAR     79  70  73 S13G20    30.03R
KILLEEN        PTCLDY    79  72  78 S21       30.03R
KILLEEN-SKYLRK CLEAR     79  70  73 S15       30.04R
FORT HOOD      CLEAR     81  73  76 S15G21    30.03S
GATESVILLE     CLEAR     81  72  74 S13G18    30.05S
HAMILTON       CLEAR     79  71  74 S15G23    30.04R
LAMPASAS       PTCLDY    78  73  85 S13       30.04R
$$

TXZ095>097-106>112-122>126-135>138-148>153-164>167-221000-
EAST TEXAS

CITY           SKY/WX    TMP DP  RH WIND       PRES   REMARKS
PARIS          CLEAR     77  68  73 S6        30.03R
SULPHUR SPRNGS CLEAR     81  72  74 S12       30.04S
CLARKSVILLE    MOCLDY    78  71  78 S3        30.02S
MOUNT PLEASANT CLEAR     78  72  81 S3        30.05R
GILMER         CLEAR     79  73  83 S5        30.05S
MINEOLA        CLEAR     79  73  83 S5        30.05R
TYLER          CLEAR     78  72  81 S9        30.04R
LONGVIEW       CLEAR     78  72  81 SW7       30.04R
MARSHALL       CLEAR     76  73  89 CALM      30.07R
ATHENS         CLEAR     75  72  88 S3        30.03R
PALESTINE      CLEAR     77  74  88 S6        30.05R
JACKSONVILLE   CLEAR     75  73  92 S7        30.08R
HENDERSON      CLEAR     75  73  95 CALM      30.06R
NACOGDOCHES    CLEAR     75  73  94 S5        30.06R
LUFKIN         CLEAR     77  73  87 SE3       30.05S
$$

SUPPLEMENTAL OBSERVATIONS (CENTRAL)

CITY           SKY/WX    TMP DP  RH WIND       PRES   REMARKS
$$

SUPPLEMENTAL OBSERVATIONS (WEST)

CITY           SKY/WX    TMP DP  RH WIND       PRES   REMARKS
$$

SUPPLEMENTAL OBSERVATIONS (EAST)

CITY           SKY/WX    TMP DP  RH WIND       PRES   REMARKS
$$

SUPPLEMENTAL OBSERVATIONS ARE A COLLECTION OF AUTOMATED INSTRUMENTS
THAT ARE MAINTAINED BY A VARIETY OF FEDERAL AND STATE AGENCIES.
CERTAIN ELEMENTS...SUCH AS HUMIDITY VALUES AND SUSTAINED WIND
SPEEDS...MAY BE APPROXIMATED.